Location: Luz Observatory
(34.5000°N, 117.2833°W)
Time: 13:32:32
(UTC-07:00)

Okean 3 Rocket - Visible Passes

Search period start: 30 May 2015 00:00
Search period end: 09 June 2015 00:00
Orbit: 615 x 647 km, 82.5° (Epoch: 30 May)

Date Brightness Start Highest point End Pass type
(mag) Time Alt. Az. Time Alt. Az. Time Alt. Az.
30 May 5.2 21:02:47 16° ESE 21:03:36 16° E 21:06:28 10° NE visible
30 May 5.0 22:40:09 27° WSW 22:41:30 33° WNW 22:45:30 10° NNW visible
31 May 4.3 21:23:07 28° SE 21:24:32 35° E 21:28:35 10° NNE visible
31 May 6.1 23:00:28 12° WSW 23:02:50 16° WNW 23:05:28 10° NW visible
01 Jun 3.4 21:43:23 30° S 21:45:31 79° E 21:49:57 10° N visible
02 Jun 5.6 20:27:25 10° ESE 20:28:51 12° E 20:30:34 10° ENE visible
02 Jun 4.5 22:03:34 18° SSW 22:06:37 45° W 22:10:52 10° N visible
03 Jun 4.7 20:46:20 11° SE 20:49:44 25° E 20:53:25 10° NE visible
03 Jun 5.9 22:24:24 10° SW 22:27:52 21° WNW 22:31:12 10° NNW visible
04 Jun 3.7 21:06:23 10° S 21:10:42 56° E 21:15:02 10° NNE visible
05 Jun 3.9 21:27:21 10° SSW 21:31:45 64° W 21:36:08 10° N visible
06 Jun 5.5 21:49:03 10° SW 21:52:55 29° WNW 21:56:44 10° NNW visible
07 Jun 4.1 20:31:48 10° SSE 20:35:54 39° E 20:40:01 10° NNE visible
07 Jun 6.4 22:11:52 10° WSW 22:14:16 14° WNW 22:16:28 10° NW visible
08 Jun 3.6 20:52:29 10° S 20:56:54 90° ENE 21:01:18 10° N visible
